This is the latest recevied weather packets stored in our database for station/object K5NAN. If no packets are shown the sender has not sent any weather packets the latest 10 day(s).
| Time | Temp. | Humidity | Pressure | Rain* | Wind** | Luminosity | Snow |
|---|---|---|---|---|---|---|---|
| 1777653980 | 15.56° C | 68% | 1016.1 hPa | 0 mm | - | 496 W/m² | - |
| 1777653676 | 15.56° C | 72% | 1016.1 hPa | 0 mm | - | 441 W/m² | - |
| 1777653373 | 14.44° C | 76% | 1016.2 hPa | 0 mm | - | 428 W/m² | - |
| 1777653070 | 14.44° C | 75% | 1016.1 hPa | 0 mm | - | 227 W/m² | - |
| 1777652766 | 14.44° C | 78% | 1016.4 hPa | 0 mm | - | 270 W/m² | - |
| 1777652463 | 13.89° C | 79% | 1016.5 hPa | 0 mm | - | 287 W/m² | - |
| 1777652160 | 13.89° C | 80% | 1016.2 hPa | 0 mm | - | 275 W/m² | - |
| 1777651857 | 13.89° C | 81% | 1016.6 hPa | 0 mm | - | 259 W/m² | - |
| 1777651554 | 13.89° C | 82% | 1016.6 hPa | 0 mm | - | 248 W/m² | - |
| 1777651250 | 13.89° C | 82% | 1016.5 hPa | 0 mm | - | 221 W/m² | - |
| 1777650947 | 13.33° C | 82% | 1016.8 hPa | 0 mm | - | 182 W/m² | - |
| 1777650644 | 13.33° C | 82% | 1016.7 hPa | 0 mm | - | 136 W/m² | - |
| 1777650342 | 13.33° C | 82% | 1016.8 hPa | 0 mm | - | 109 W/m² | - |
| 1777650038 | 13.33° C | 82% | 1016.3 hPa | 0 mm | - | 83 W/m² | - |
| 1777649736 | 13.33° C | 81% | 1016.2 hPa | 0 mm | - | 71 W/m² | - |
| 1777649432 | 13.33° C | 81% | 1016.6 hPa | 0 mm | - | 79 W/m² | - |
| 1777649129 | 13.33° C | 81% | 1016.5 hPa | 0 mm | - | 80 W/m² | - |
| 1777648827 | 13.33° C | 80% | 1016.3 hPa | 0 mm | - | 86 W/m² | - |
| 1777648523 | 13.33° C | 81% | 1016.3 hPa | 0 mm | - | 105 W/m² | - |
| 1777648220 | 12.78° C | 81% | 1016.5 hPa | 0 mm | - | 102 W/m² | - |
| 1777647915 | 12.78° C | 81% | 1016.4 hPa | 0 mm | - | 110 W/m² | - |
| 1777647613 | 12.78° C | 81% | 1016.4 hPa | 0 mm | - | 88 W/m² | - |
| 1777647308 | 12.78° C | 82% | 1016.2 hPa | 0 mm | - | 90 W/m² | - |
| 1777647007 | 12.78° C | 82% | 1016 hPa | 0 mm | - | 82 W/m² | - |
| 1777646702 | 12.78° C | 82% | 1016 hPa | 0 mm | - | 89 W/m² | - |
* Rain latest hour (hover to see other rain measurements)
** Current wind speed in m/s (hover to see current wind gust speed)